When you browse on this site, cookies collect data to enhance your experience and personalize the content and advertising you see.
Visit our Privacy Policy to learn more. By continuing to use the site, you agree to this use of cookies and data.
  • In Schweiz
  • Länderverzeichnis
  • Für 7 Tage
  • Wassertemperatur
  • Satellitenkarten
  • Wetterkarte
  • Widgets
  • user-avatar
    Anmelden

    Stündliche Wetter Zavarykino

    Heute, 20 Juni, Donnerstag

    Zeit Temperatur Niederschläge Wind Luftdruck Luftfeuchtigkeit
    00:00 +18°C° 0 mm 1 m/S 746 mmHg 78%
    01:00 +18°C° 0 mm 1 m/S 746 mmHg 78%
    02:00 +18°C° 0 mm 1 m/S 747 mmHg 78%
    03:00 +16°C° 0 mm 1 m/S 747 mmHg 79%
    04:00 +18°C° 0 mm 1 m/S 747 mmHg 79%
    05:00 +19°C° 0 mm 1 m/S 747 mmHg 80%
    06:00 +19°C° 0 mm 1 m/S 747 mmHg 80%
    07:00 +21°C° 0 mm 1 m/S 747 mmHg 75%
    08:00 +23°C° 0 mm 1 m/S 747 mmHg 70%
    09:00 +24°C° 0 mm 1 m/S 747 mmHg 65%
    10:00 +25°C° 0 mm 1 m/S 748 mmHg 60%
    11:00 +26°C° 0 mm 1 m/S 748 mmHg 56%
    12:00 +27°C° 0 mm 1 m/S 748 mmHg 52%
    13:00 +28°C° 0 mm 1 m/S 748 mmHg 51%
    14:00 +28°C° 0 mm 1 m/S 748 mmHg 50%
    15:00 +28°C° 0 mm 1 m/S 747 mmHg 49%
    16:00 +28°C° 0 mm 1 m/S 747 mmHg 53%
    17:00 +28°C° 0 mm 1 m/S 747 mmHg 56%
    18:00 +27°C° 0 mm 1 m/S 747 mmHg 60%
    19:00 +26°C° 0 mm 1 m/S 747 mmHg 62%
    20:00 +24°C° 0 mm 1 m/S 747 mmHg 65%
    21:00 +22°C° 0 mm 1 m/S 747 mmHg 68%
    22:00 +21°C° 0 mm 1 m/S 747 mmHg 70%
    23:00 +20°C° 0 mm 1 m/S 747 mmHg 72%

    Morgen, 21 Juni, Freitag

    Zeit Temperatur Niederschläge Wind Luftdruck Luftfeuchtigkeit
    00:00 +20°C° 0 mm 1 m/S 747 mmHg 74%
    01:00 +19°C° 0 mm 1 m/S 748 mmHg 76%
    02:00 +19°C° 0 mm 1 m/S 748 mmHg 78%
    03:00 +19°C° 0 mm 1 m/S 748 mmHg 79%
    04:00 +19°C° 0 mm 1 m/S 748 mmHg 79%
    05:00 +20°C° 0 mm 1 m/S 748 mmHg 79%
    06:00 +21°C° 0 mm 1 m/S 748 mmHg 79%
    07:00 +22°C° 0 mm 1 m/S 748 mmHg 75%
    08:00 +24°C° 0 mm 2 m/S 749 mmHg 71%
    09:00 +25°C° 0 mm 2 m/S 749 mmHg 67%
    10:00 +26°C° 0 mm 2 m/S 749 mmHg 63%
    11:00 +27°C° 0 mm 2 m/S 749 mmHg 59%
    12:00 +28°C° 0 mm 2 m/S 749 mmHg 55%
    13:00 +28°C° 0 mm 2 m/S 748 mmHg 56%
    14:00 +28°C° 0 mm 2 m/S 748 mmHg 58%
    15:00 +28°C° 0 mm 2 m/S 748 mmHg 59%
    16:00 +27°C° 0.1 mm 2 m/S 748 mmHg 63%
    17:00 +27°C° 0.1 mm 2 m/S 748 mmHg 67%
    18:00 +27°C° 0.1 mm 2 m/S 748 mmHg 71%
    19:00 +25°C° 0 mm 2 m/S 748 mmHg 73%
    20:00 +24°C° 0 mm 2 m/S 748 mmHg 76%
    21:00 +21°C° 0 mm 2 m/S 748 mmHg 78%
    22:00 +21°C° 0 mm 2 m/S 748 mmHg 80%
    23:00 +20°C° 0 mm 2 m/S 748 mmHg 81%

    übermorgen, 22 Juni, Samstag

    Zeit Temperatur Niederschläge Wind Luftdruck Luftfeuchtigkeit
    00:00 +19°C° 0 mm 2 m/S 748 mmHg 82%
    01:00 +19°C° 0 mm 2 m/S 748 mmHg 83%
    02:00 +19°C° 0 mm 2 m/S 748 mmHg 84%
    03:00 +19°C° 0 mm 2 m/S 748 mmHg 84%
    04:00 +19°C° 0 mm 3 m/S 748 mmHg 84%
    05:00 +19°C° 0 mm 3 m/S 748 mmHg 84%
    06:00 +20°C° 0 mm 3 m/S 748 mmHg 84%
    07:00 +21°C° 0 mm 3 m/S 748 mmHg 81%
    08:00 +24°C° 0 mm 3 m/S 748 mmHg 77%
    09:00 +25°C° 0 mm 4 m/S 749 mmHg 74%
    10:00 +26°C° 0 mm 4 m/S 748 mmHg 69%
    11:00 +27°C° 0 mm 4 m/S 748 mmHg 64%
    12:00 +28°C° 0 mm 5 m/S 748 mmHg 60%
    13:00 +28°C° 0 mm 5 m/S 748 mmHg 60%
    14:00 +29°C° 0 mm 5 m/S 748 mmHg 59%
    15:00 +29°C° 0 mm 5 m/S 748 mmHg 59%
    16:00 +28°C° 0 mm 4 m/S 747 mmHg 63%
    17:00 +28°C° 0 mm 4 m/S 747 mmHg 67%
    18:00 +28°C° 0 mm 3 m/S 747 mmHg 71%
    19:00 +26°C° 0 mm 3 m/S 747 mmHg 75%
    20:00 +25°C° 0 mm 3 m/S 747 mmHg 78%
    21:00 +22°C° 0 mm 3 m/S 748 mmHg 82%
    22:00 +22°C° 0 mm 3 m/S 748 mmHg 83%
    23:00 +21°C° 0 mm 3 m/S 748 mmHg 84%

    23 Juni, Sonntag

    Zeit Temperatur Niederschläge Wind Luftdruck Luftfeuchtigkeit
    00:00 +21°C° 0 mm 3 m/S 748 mmHg 85%
    01:00 +20°C° 0 mm 3 m/S 748 mmHg 86%
    02:00 +20°C° 0 mm 3 m/S 748 mmHg 87%
    03:00 +19°C° 0 mm 3 m/S 748 mmHg 88%
    04:00 +20°C° 0 mm 2 m/S 748 mmHg 88%
    05:00 +20°C° 0 mm 2 m/S 748 mmHg 87%
    06:00 +21°C° 0 mm 2 m/S 748 mmHg 87%
    07:00 +23°C° 0.1 mm 2 m/S 748 mmHg 82%
    08:00 +25°C° 0.1 mm 3 m/S 748 mmHg 78%
    09:00 +26°C° 0.1 mm 3 m/S 748 mmHg 73%
    10:00 +27°C° 0.2 mm 3 m/S 748 mmHg 70%
    11:00 +28°C° 0.2 mm 3 m/S 748 mmHg 67%
    12:00 +28°C° 0.2 mm 4 m/S 748 mmHg 64%
    13:00 +28°C° 0.4 mm 4 m/S 748 mmHg 64%
    14:00 +29°C° 0.4 mm 4 m/S 748 mmHg 63%
    15:00 +29°C° 0.4 mm 4 m/S 748 mmHg 63%
    16:00 +28°C° 0.8 mm 3 m/S 748 mmHg 66%
    17:00 +28°C° 0.8 mm 3 m/S 748 mmHg 70%
    18:00 +27°C° 0.8 mm 2 m/S 748 mmHg 73%
    19:00 +26°C° 0.2 mm 2 m/S 748 mmHg 79%
    20:00 +24°C° 0.2 mm 2 m/S 749 mmHg 85%
    21:00 +21°C° 0.2 mm 2 m/S 749 mmHg 91%
    22:00 +21°C° 0 mm 3 m/S 749 mmHg 91%
    23:00 +20°C° 0 mm 3 m/S 749 mmHg 92%

    24 Juni, Montag

    Zeit Temperatur Niederschläge Wind Luftdruck Luftfeuchtigkeit
    00:00 +19°C° 0 mm 4 m/S 749 mmHg 92%
    01:00 +18°C° 0 mm 4 m/S 749 mmHg 90%
    02:00 +17°C° 0 mm 4 m/S 749 mmHg 89%
    03:00 +15°C° 0 mm 4 m/S 750 mmHg 87%
    04:00 +15°C° 0 mm 4 m/S 750 mmHg 85%
    05:00 +15°C° 0 mm 4 m/S 750 mmHg 83%
    06:00 +15°C° 0 mm 4 m/S 750 mmHg 81%
    07:00 +17°C° 0 mm 4 m/S 750 mmHg 76%
    08:00 +17°C° 0 mm 5 m/S 751 mmHg 71%
    09:00 +19°C° 0 mm 5 m/S 751 mmHg 67%
    10:00 +20°C° 0 mm 5 m/S 751 mmHg 64%
    11:00 +21°C° 0 mm 5 m/S 751 mmHg 62%
    12:00 +22°C° 0 mm 5 m/S 751 mmHg 60%
    13:00 +22°C° 0 mm 5 m/S 751 mmHg 60%
    14:00 +23°C° 0 mm 5 m/S 751 mmHg 61%
    15:00 +23°C° 0 mm 5 m/S 751 mmHg 61%
    16:00 +23°C° 0 mm 5 m/S 751 mmHg 62%
    17:00 +22°C° 0 mm 4 m/S 751 mmHg 64%
    18:00 +22°C° 0 mm 4 m/S 751 mmHg 66%
    19:00 +21°C° 0 mm 4 m/S 751 mmHg 69%
    20:00 +19°C° 0 mm 3 m/S 751 mmHg 72%
    21:00 +18°C° 0 mm 3 m/S 751 mmHg 76%
    22:00 +17°C° 0 mm 3 m/S 751 mmHg 75%
    23:00 +16°C° 0 mm 3 m/S 751 mmHg 75%

    25 Juni, Dienstag

    Zeit Temperatur Niederschläge Wind Luftdruck Luftfeuchtigkeit
    00:00 +16°C° 0 mm 3 m/S 752 mmHg 75%
    01:00 +14°C° 0 mm 3 m/S 752 mmHg 75%
    02:00 +14°C° 0 mm 3 m/S 752 mmHg 76%
    03:00 +13°C° 0 mm 3 m/S 752 mmHg 77%
    04:00 +14°C° 0 mm 3 m/S 752 mmHg 78%
    05:00 +14°C° 0 mm 3 m/S 752 mmHg 79%
    06:00 +14°C° 0 mm 3 m/S 752 mmHg 80%
    07:00 +17°C° 0 mm 3 m/S 752 mmHg 75%
    08:00 +18°C° 0 mm 3 m/S 752 mmHg 69%
    09:00 +20°C° 0 mm 3 m/S 752 mmHg 63%
    10:00 +20°C° 0 mm 3 m/S 752 mmHg 59%
    11:00 +21°C° 0 mm 3 m/S 752 mmHg 56%
    12:00 +22°C° 0 mm 3 m/S 752 mmHg 52%
    13:00 +22°C° 0 mm 3 m/S 752 mmHg 52%
    14:00 +22°C° 0 mm 3 m/S 752 mmHg 53%
    15:00 +22°C° 0 mm 3 m/S 751 mmHg 53%
    16:00 +22°C° 0 mm 3 m/S 751 mmHg 55%
    17:00 +23°C° 0 mm 2 m/S 751 mmHg 57%
    18:00 +23°C° 0 mm 2 m/S 750 mmHg 59%
    19:00 +20°C° 0 mm 2 m/S 750 mmHg 63%
    20:00 +19°C° 0 mm 1 m/S 750 mmHg 68%
    21:00 +18°C° 0 mm 1 m/S 750 mmHg 72%
    22:00 +15°C° 0 mm 0 m/S 750 mmHg 72%
    23:00 +15°C° 0 mm 0 m/S 750 mmHg 72%
    Mehr zeigen